Regional Weather Roundup
Issued by NWS Boston, MA

Home | Current Version | Previous Version | Text Only | Print | Product List | Glossary On
Versions: 1 2 3 4 5 6 7 8 9 10 11 12 13 14 15 16 17 18 19 20 21 22 23 24 25 26 27 28 29 30 31 32 33 34 35 36 37 38 39 40 41 42 43 44 45 46 47 48 49 50
000
ASUS41 KBOX 292210
RWRBOX

REGIONAL WEATHER ROUNDUP
NATIONAL WEATHER SERVICE TAUNTON MA
600 PM EDT SUN MAR 29 2015

NOTE:  "FAIR" INDICATES FEW OR NO CLOUDS BELOW 12,000 FEET WITH NO
SIGNIFICANT WEATHER AND/OR OBSTRUCTIONS TO VISIBILITY.  THE FOLLOWING
OBSERVATION LOCATIONS DO NOT REPORT PRESENT WEATHER...PROVINCETOWN...
SMITHFIELD...BLOCK ISLAND...KEENE...AND OXFORD.

MAZALL-292300-
EASTERN MASSACHUSETTS

CITY           SKY/WX    TMP DP  RH WIND       PRES   REMARKS
BOSTON         SUNNY     40  14  34 VRB3      30.10F
BEVERLY        SUNNY     37  15  40 SE8       30.09S WCI  31
LAWRENCE       SUNNY     41   5  22 W8        30.10S
BEDFORD        SUNNY     41   0  18 VRB5      30.08F
BLUE HILL        N/A     38   6  26 W12       30.07S WCI  30
NORWOOD        SUNNY     42   3  19 CALM      30.10F
MARSHFIELD     SUNNY     36  18  48 S8        30.14S WCI  29
PLYMOUTH       SUNNY     37  15  40 E9        30.12S WCI  30
TAUNTON        SUNNY     43   6  21 NW7       30.11S
NEW BEDFORD    SUNNY     38  20  48 S10       30.12S WCI  31
$$

MAZALL-292300-
CAPE COD AND THE ISLANDS

CITY           SKY/WX    TMP DP  RH WIND       PRES   REMARKS
FALMOUTH       SUNNY     36  16  44 S8        30.13R WCI  29
HYANNIS        SUNNY     38  11  32 CALM      30.12R
CHATHAM        SUNNY     35  12  38 E7        30.14S WCI  29
PROVINCETOWN   SUNNY     36  16  44 SE3       30.13F
NANTUCKET      SUNNY     36  15  42 N7        30.14S WCI  30
MARTHAS VNYRD  SUNNY     35  12  38 SE10      30.14R WCI  27
$$

MAZALL-292300-
CENTRAL AND WESTERN MASSACHUSETTS

CITY           SKY/WX    TMP DP  RH WIND       PRES   REMARKS
WORCESTER      SUNNY     38   3  23 W10       30.07S WCI  31
FITCHBURG      SUNNY     43   2  18 W7        30.09S
ORANGE         SUNNY     40   3  21 VRB7      30.08S
SPRINGFIELD    SUNNY     43   0  16 W5        30.10R
WESTFIELD      SUNNY     44   2  17 W7        30.11S
NORTH ADAMS    SUNNY     39   5  24 NW3       30.10S
PITTSFIELD     SUNNY     36   7  29 W8        30.07S WCI  30
$$

RIZALL-292300-
RHODE ISLAND

CITY           SKY/WX    TMP DP  RH WIND       PRES   REMARKS
PROVIDENCE     SUNNY     42   7  23 W6        30.12S
NEWPORT        SUNNY     35  19  52 SW8       30.13R WCI  29
BLOCK ISLAND   SUNNY     37  16  41 SW12      30.15R WCI  30
SMITHFIELD     SUNNY     41   7  24 W6        30.09S
WESTERLY       SUNNY     38  15  39 SW10      30.15R WCI  31
$$

CTZALL-292300-
CONNECTICUT

CITY           SKY/WX    TMP DP  RH WIND       PRES   REMARKS
BRADLEY INTL   SUNNY     45   1  16 VRB5      30.11S
HARTFORD       SUNNY     43   2  18 SW12      30.13S
BRIDGEPORT     SUNNY     41  19  41 SW10      30.16R
DANBURY        SUNNY     42   3  19 W6        30.14S
GROTON         SUNNY     38  20  48 SW12      30.14R WCI  30
NEW HAVEN      SUNNY     38  21  50 SW8       30.15R
CHESTER        FAIR      41   1  19 W7        30.13S
MERIDEN        SUNNY     43   5  20 W6        30.14R
WILLIMANTIC    SUNNY     42   4  20 NW6       30.12S
OXFORD         SUNNY     39   9  28 W8        30.13S
$$

MEZ002-015-021-024-NHZ003-005-008-011-012-014-VTZ005-008-292300-
NORTHERN NEW ENGLAND

CITY           SKY/WX    TMP DP  RH WIND       PRES   REMARKS
PORTLAND ME    SUNNY     38  18  44 S8        30.07F
BANGOR ME      PTCLDY    40   3  21 VRB5      30.03F
CONCORD NH     SUNNY     42   6  22 W6        30.07S
MANCHESTER NH  SUNNY     42   3  19 W5        30.07S
NASHUA NH      SUNNY     43   2  18 NW8       30.09S
PORTSMOUTH NH  SUNNY     41   4  21 W5        30.07S
JAFFREY NH     SUNNY     38   1  21 NW6       30.06S
KEENE NH       SUNNY     39   1  20 NW7       30.09R
BURLINGTON VT  MOSUNNY   40   8  26 S10       30.05F
MT. WASHINGTON MOSUNNY   16 -13  27 W15         N/A  WCI   1
$$

NYZ052-076-292300-
EASTERN NEW YORK

CITY           SKY/WX    TMP DP  RH WIND       PRES   REMARKS
ALBANY         MOSUNNY   41   5  22 W7        30.12F
NEW YORK CITY  MOSUNNY   46   4  17 W10       30.17R
$$

ANZALL-292300-
MARINE OBSERVATIONS

STATION/POSITION TIME  TEMP    WIND        PRES    VSBY  WAVE
                       AIR SEA DIR/SP/G                  HT/PER
                 (UTC) (F)     (DEG/KT/KT) (MB)    (MI)  (FT/S)
BOSTON BUOY      2150   34 37  160/ 12/ 14 1019.8F         4/11
BUZZARDS BAY     2200          220/ 14/ 15 1021.1R
NANTUCKET SOUND  2150   36 36  100/  2/  2 1020.7S         1/ 5
MASS BAY-STELLWA 2104   34 37  160/ 12/ 14   N/A    1 3/4  6/11
ISLE OF SHOALS   2200   35     170/ 16/ 17 1018.2F
S OF BLOCK IS    2108      37                N/A           4/11
$$

......................KEY.........................
  SKY/WX - SKY CONDITION/PRESENT WEATHER
  TMP    - TEMPERATURE IN FAHRENHEIT
  DWPT   - DEWPOINT IN FAHRENHEIT
  RH     - RELATIVE HUMIDITY IN PERCENT
  WIND   - DIRECTION AND SPEED IN MPH
  PRES   - MEAN SEA LEVEL PRESSURE IN INCHES OF HG
  WCI    - WIND CHILL INDEX
  VSB    - VISIBILITY IN MILES
  HX     - HEAT INDEX
  TC     - TEMPERATURE IN CELSIUS
  VRB    - VARIABLE WIND DIRECTION
  N/A    - NOT AVAILABLE


USA.gov is the U.S. government's official web portal to all federal, state and local government web resources and services.